Tracking 19242 objects as of 15-Aug-2018
HD Live streaming from Space Station
objects crossing your sky now

NIMBUS 2 DEB

Track NIMBUS 2 DEB now!
10-day predictions


NORAD ID: 28620
Int'l Code: 1966-040AK
Perigee: 1,061.2 km
Apogee: 1,147.3 km
Inclination: 100.4 °
Period: 107.2 minutes
Semi major axis: 7475 km
RCS: 0.0117 m2 (small)
Launch date: May 15, 1966
Source: United States (US)
Launch site: AIR FORCE WESTERN TEST RANGE (AFWTR)

Note: This is SATELLITE DEBRIS
aabbcc
Your satellite tracking list
Your tracking list is empty




NASA's NSSDC Master Catalog

Two Line Element Set (TLE):
1 28620U 66040AK  18227.28832639  .00000611  00000-0  11387-2 0  9995
2 28620 100.4078 351.9181 0057620  56.4115 333.8879 13.43270796666742
Source of the keplerian elements: AFSPC